Regional Weather Roundup
Issued by NWS

Home | Current Version | Previous Version | Graphics & Text | Print | Product List | Glossary On
Versions: 1 2 3 4 5 6 7 8 9 10 11 12 13 14 15 16 17 18 19 20 21 22 23 24 25 26 27 28 29 30 31 32 33 34 35 36 37 38 39 40 41 42 43 44 45 46 47 48 49 50
000
ASUS44 KMEG 260110
RWRTN
TENNESSEE HOURLY STATE WEATHER ROUNDUP
NATIONAL WEATHER SERVICE MEMPHIS TN
700 PM CST TUE NOV 25 2014

TNZ002-004-019-021-049-052-054-088>092-260200-
WEST TENNESSEE

CITY           SKY/WX    TMP DP  RH WIND       PRES   REMARKS
MEMPHIS INTL   PTCLDY    42  27  55 CALM      30.20R
NWS MEMPHIS      N/A     37 N/A N/A MISG        N/A
JACKSON        CLOUDY    39  28  64 NW5       30.20R
DYERSBURG      MOCLDY    36  19  51 CALM      30.21S
UNION CITY     CLEAR     36  27  69 CALM      30.18S
PARIS          CLEAR     36  25  64 CALM      30.19R
HUNTINGDON     CLOUDY    37  22  55 CALM      30.19R
LEXINGTON      CLEAR     39  27  60 CALM      30.17S
SAVANNAH       CLEAR     41  27  56 NW5       30.17S
$$

TNZ008-025-027-028-033-062-065-066-260200-
NORTH MIDDLE TENNESSEE

CITY           SKY/WX    TMP DP  RH WIND       PRES   REMARKS
NASHVILLE      CLOUDY    44  26  49 N7        30.16R
CLARKSVILLE    CLOUDY    41  27  57 CALM      30.18R
SMYRNA         CLOUDY    43  28  55 CALM      30.17R
COOKEVILLE     CLEAR     43  32  65 N3        30.12S
CROSSVILLE     CLOUDY    45  26  47 NW6       30.12R
$$

TNZ061-075-076-078-094-096-097-260200-
SOUTH MIDDLE TENNESSEE

CITY           SKY/WX    TMP DP  RH WIND       PRES   REMARKS
FAYETTEVILLE   CLEAR     45  28  53 N16G151   30.12S
TULLAHOMA      CLEAR     43  28  56 N7        30.13S
WINCHESTER     PTCLDY    45  30  57 N5        30.13S
MCMINNVILLE    CLEAR     43  30  61 CALM      30.13S
COLUMBIA       CLEAR     43  27  52 CALM      30.14F
SHELBYVILLE    CLEAR     43  32  65 N10G37    30.15S
$$

TNZ017-018-042-046-047-260200-
NORTHEAST TENNESSEE

CITY           SKY/WX    TMP DP  RH WIND       PRES   REMARKS
TRI CITIES     CLOUDY    43  32  65 CALM      30.06F
ELIZABETHTON   CLEAR     43  28  56 E5        30.05F
$$

TNZ012-013-036-069-073-074-260200-
CENTRAL EAST TENNESSEE

CITY           SKY/WX    TMP DP  RH WIND       PRES   REMARKS
KNOXVILLE      CLOUDY    50  30  46 CALM      30.08R
OAK RIDGE      CLOUDY    49  35  58 CALM      30.11R
GATLINBURG     CLEAR     45  30  57 CALM      30.08R
MORRISTOWN     CLEAR     46  30  53 CALM      30.08R
$$

TNZ083-085-099-260200-
SOUTHEAST TENNESSEE

CITY           SKY/WX    TMP DP  RH WIND       PRES   REMARKS
CHATTANOOGA    CLOUDY    52  30  43 N5        30.10R
$$

SKY/WX REPORTED AS FAIR MEANS FEW OR NO CLOUDS BELOW
12 THOUSAND FEET.



USA.gov is the U.S. government's official web portal to all federal, state and local government web resources and services.